Starlink 30802

operational
NORAD ID: 58150 Int'l Des: 2023-166 Owner: SPXS Country: US Constellation: starlink
LEOCIRCULAR

About Starlink 30802

Description loading...

Live Position

Loading 3D Globe...

Upcoming Passes

Altitude History

Altitude vs Time

uPlot chart will show altitude changes over time

Two-Line Element Set

1 58150U 23166A 25259.16067925 .00003077 00000-0 11600-3 0 9994
2 58150 53.1605 310.5893 0000550 87.4434 272.6630 15.30189277106455
Epoch: Sep 16, 2025 • Age: 7 hours

Current Status

Altitude 475.6 km
Velocity 7.63 km/s
Sub-Earth Point 20.62°N, 44.62°W
Launch Date Oct 29, 2023
Age 1.8 years
Type internet

Technical Details

Classification Payload
Mass 730.00 kg
Dry Mass 700.00 kg
Total Mass 730.00 kg
Length 0.30 m
Diameter 4.10 m
Span 29.00 m
Shape Box + pan
Manufacturer SPXS
Bus Type Starlink V2M
Phase Status In Orbit
Owner/State SPXS/US

Large Constellations

Loading constellations...